Regional Weather Roundup
Issued by NWS

Home | Current Version | Previous Version | Graphics & Text | Print | Product List | Glossary On
Versions: 1 2 3 4 5 6 7 8 9 10 11 12 13 14 15 16 17 18 19 20 21 22 23 24 25 26 27 28 29 30 31 32 33 34 35 36 37 38 39 40 41 42 43 44 45 46 47 48 49 50
000
ASUS43 KIND 230600
RWRIN

WEATHER ROUNDUP FOR INDIANA
NATIONAL WEATHER SERVICE INDIANAPOLIS IN
200 AM EDT SUN JUL 23 2017

NOTE: "FAIR" INDICATES FEW OR NO CLOUDS BELOW 12,000 FEET WITH NO
SIGNIFICANT WEATHER AND/OR OBSTRUCTIONS TO VISIBILITY.

* - STATION DOES NOT REPORT WEATHER SUCH AS PRECIPITATION OR FOG.

+ - STATION NOT QUALITY CONTROLLED BY THE NATIONAL WEATHER SERVICE.
    USE DATA WITH CAUTION...ESPECIALLY DEWPOINT AND RELATIVE
    HUMIDITY OBSERVATIONS.

INZ001>003-010>013-019-020-230700-
NORTHWEST INDIANA

CITY           SKY/WX    TMP DP  RH WIND       PRES   REMARKS
MICHIGAN CITY+ CLEAR     68  68 100 CALM      29.81S FOG
MONTICELLO +   PTCLDY    74  73  95 CALM      29.81S
6HR MIN TEMP:  74; 6HR MAX TEMP:  80;

RENSSELAER +   MOCLDY    73  72  94 CALM      29.81F

$$

LMZ046-743>745-230700-
SOUTHERN LAKE MICHIGAN

STATION/POSITION TIME  TEMP    WIND        PRES    WAVE
                       AIR SEA DIR/SP/G            HT
                 (UTC) (F)     (DEG/KT/KT) (MB)    (FT)
BURNS HARBOR     0540   75     170/  2/  4 1009.8F
MICHIGAN CITY    0530   73     120/  4/  4   N/A
5NW MICH CITY    0550   74 75  170/  4/  6   N/A     0

$$

INZ004-005-014>016-021>024-230700-
NORTH CENTRAL INDIANA

CITY           SKY/WX    TMP DP  RH WIND       PRES   REMARKS
GOSHEN         CLEAR     69  66  90 SW3       29.81F FOG
6HR MIN TEMP:  68; 6HR MAX TEMP:  80;

SOUTH BEND     CLEAR     68  67  96 CALM      29.81F
6HR MIN TEMP:  68; 6HR MAX TEMP:  79;


$$

INZ006>009-017-018-025>027-230700-
NORTHEAST INDIANA

CITY           SKY/WX    TMP DP  RH WIND       PRES   REMARKS
FORT WAYNE     PTCLDY    72  69  90 CALM      29.80F
6HR MIN TEMP:  71; 6HR MAX TEMP:  81;

KENDALLVILLE + CLEAR     68  68 100 CALM      29.82F FOG

$$

INZ028-029-035-036-043>045-051>053-230700-
WEST CENTRAL INDIANA

CITY           SKY/WX    TMP DP  RH WIND       PRES   REMARKS
LAFAYETTE      CLOUDY    74  74 100 CALM      29.80F
6HR MIN TEMP:  74; 6HR MAX TEMP:  81;

TERRE HAUTE    TSTM      74  70  87 SW5       29.82F
6HR MIN TEMP:  72; 6HR MAX TEMP:  86; 6HR PCP:  0.80;


$$

INZ030>032-037>040-046>048-054>057-064-065-230700-
CENTRAL INDIANA

CITY           SKY/WX    TMP DP  RH WIND       PRES   REMARKS
GREENWOOD *+   CLOUDY   N/A N/A N/A SW3       29.84S
INDIANAPOLIS   CLOUDY    76  74  93 S8        29.81F
6HR MIN TEMP:  76; 6HR MAX TEMP:  84; 6HR PCP:  0.01;

-EAGLE CREEK   CLOUDY    77  73  87 S6        29.82S
6HR MIN TEMP:  77; 6HR MAX TEMP:  84;

KOKOMO +       CLOUDY    75  73  93 SW3       29.83F
6HR MIN TEMP:  74; 6HR MAX TEMP:  81;

MT COMFORT *+  CLOUDY    73  72  94 S5        29.83F
SHELBYVILLE    CLOUDY    77  71  82 W9        29.80F
6HR MIN TEMP:  75; 6HR MAX TEMP:  85; 6HR PCP:  0.63;


$$

INZ033-034-041-042-049-050-058-059-230700-
EAST CENTRAL INDIANA

CITY           SKY/WX    TMP DP  RH WIND       PRES   REMARKS
MUNCIE         CLOUDY    76  72  87 CALM      29.83F
6HR MIN TEMP:  75; 6HR MAX TEMP:  83;

RICHMOND +     CLOUDY    73  72  94 SW6       29.86S

$$

INZ060-061-067>069-081>083-085>088-230700-
SOUTHWEST INDIANA

CITY           SKY/WX    TMP DP  RH WIND       PRES   REMARKS
EVANSVILLE     CLEAR     83  74  74 SW14      29.81F
6HR MIN TEMP:  83; 6HR MAX TEMP:  94;

HUNTINGBURG *+ MOCLDY    83  76  79 S10       29.81F
6HR MIN TEMP:  83; 6HR MAX TEMP:  91;


$$

INZ062-063-066-070>080-084-089>092-230700-
SOUTH CENTRAL AND SOUTHEAST INDIANA

CITY           SKY/WX    TMP DP  RH WIND       PRES   REMARKS
BLOOMINGTON    TSTM      72  68  87 SE8       29.82F
6HR MIN TEMP:  71; 6HR MAX TEMP:  88; 6HR PCP:  0.29;

MADISON *+     CLOUDY    77  73  88 CALM      29.85F
SEYMOUR +      CLOUDY    77  75  94 CALM      29.83S THUNDER

$$





USA.gov is the U.S. government's official web portal to all federal, state and local government web resources and services.